Location: Tamazert
(32.6352°N, 5.2072°W)
Time: 16:09:03
(UTC+00:00)

Vanguard 3 - Pass Details

Date: 08 October 2022
Orbit: 509 x 3255 km, 33.3° (Epoch: 08 December)

Event Time Altitude Azimuth Distance (km) Brightness Sun altitude
Rises 11:54:31 0° 279° (W) 3,160 10.1 51.2°
Reaches altitude 10° 11:56:33 10° 274° (W) 2,438 9.7 51.3°
Maximum altitude 12:02:07 51° 199° (SSW) 1,434 10.5 51.3°
Drops below altitude 10° 12:11:47 10° 128° (SE) 4,166 11.2 51.4°
Sets 12:16:19 0° 124° (SE) 5,637 11.7 51.3°
